Overview Statistics Trail Chart Weather Telemetry Raw packets
 

This is the latest recevied weather packets stored in our database for station/object KLRF. If no packets are shown the sender has not sent any weather packets the latest 10 day(s).

<< 54 55 56 57 58 >>
Time Temp. Humidity Pressure Rain* Wind** Luminosity Snow
1787796813 22.78° C 88% 1014.2 hPa - - - -
1787796211 22.78° C 88% 1013.5 hPa - - - -
1787795612 21.67° C 94% 1012.2 hPa - - - -
1787795011 22.78° C 88% 1012.9 hPa - - - -
1787794412 22.78° C 88% 1014.2 hPa - - - -
1787793810 21.67° C 94% 1015.2 hPa - - - -
1787793209 21.67° C 88% 1015.6 hPa - - - -
1787792613 21.67° C 94% 1012.5 hPa - - - -
1787792015 21.67° C 88% 1013.9 hPa - - - -
1787791411 22.78° C 83% 1014.9 hPa - - - -
1787790814 22.78° C 83% 1014.9 hPa - - - -
1787790212 22.78° C 83% 1014.9 hPa - - - -
1787789614 22.78° C 83% 1014.9 hPa - - - -
1787789030 23.89° C 78% 1015.9 hPa - - - -
1787788411 22.78° C 83% 1015.6 hPa - - - -
1787787814 22.78° C 94% 1015.9 hPa - - - -
1787787216 23.89° C 88% 1015.2 hPa - - - -
1787786615 25° C 78% 1014.2 hPa - - - -
1787786012 26.67° C 69% 1013.5 hPa - - - -
1787785419 26.67° C 69% 1012.9 hPa - - - -
1787784817 30.56° C 48% 1012.2 hPa - - - -
1787784213 30.56° C 48% 1012.2 hPa - - - -
1787783613 30.56° C 48% 1012.2 hPa - - - -
1787783013 30.56° C 48% 1012.2 hPa - - - -
1787782411 30.56° C 48% 1012.2 hPa - - - -

* Rain since midnight (hover to see other rain measurements)
** Current wind speed in m/s (hover to see current wind gust speed)